Location: Campillo
(40.8621°N, 4.2488°W)
Time: 13:10:30
(UTC+00:00)

Cosmos 2369 Rocket - Pass Details

Date: 11 May 2021
Orbit: 827 x 854 km, 71.0° (Epoch: 14 June)

Event Time Altitude Azimuth Distance (km) Brightness Sun altitude
Exits shadow 22:17:19 15° 72° (ENE) 2,142 4.2 -25.2°
Drops below altitude 10° 22:18:47 10° 58° (ENE) 2,452 4.6 -25.3°
Sets 22:21:59 0° 40° (NE) 3,397 5.6 -25.6°
